Port Edwards, WI

7:01 AM CST on February 19, 2017 (GMT -0600)
Alexander Field South Wood County

Weather History for KISW - December, 2013

Change the Weather History Date:

Tuesday, December 24, 2013

  Actual Average Record
Temperature  
Mean Temperature -2 °F -  
Max Temperature 12 °F 22 °F 44 °F (1955)
Min Temperature -15 °F 4 °F -25 °F (1983)
Degree Days  
Heating Degree Days 66    
Moisture  
Dew Point -3 °F    
Average Humidity 83    
Maximum Humidity 96    
Minimum Humidity 70    
Precipitation  
Precipitation 0.06 in - - ()
Sea Level Pressure  
Sea Level Pressure 30.40 in    
Wind  
Wind Speed 3 mph (South)    
Max Wind Speed 10 mph    
Max Gust Speed 18 mph    
Visibility 6 miles    
Events Snow    
Averages and records for this station are not official NWS values.
T = Trace of Precipitation, MM = Missing Value Source: NWS Daily Summary

Daily Weather History Graph

Daily Weather History Graph

Search for Another Location

Airport or City:

Trip Planner

Search our weather history database for the weather conditions in past years. The results will help you decide how hot, cold, wet, or windy it might be!

Date:

Astronomy

Dec. 24, 2013 Rise Set
Actual Time 7:33 AM CST 4:24 PM CST
Civil Twilight 7:00 AM CST 4:58 PM CST
Nautical Twilight 6:23 AM CST 5:34 PM CST
Astronomical Twilight 5:48 AM CST 6:10 PM CST
Moon 11:49 PM CST (12/24) 11:13 AM CST (12/24)
Length of Visible Light 9h 57m
Length of Day
8h 51m
Waning Gibbous, 58% of the Moon is Illuminated
Dec 24
Waning Gibbous
Dec 25
Last Quarter
Jan 1
New
Jan 7
First Quarter
Jan 15
Full

Hourly Weather History & Observations

Time (CST) Temp. Windchill Dew Point Humidity Pressure Visibility Wind Dir Wind Speed Gust Speed Precip Events Conditions
12:54 AM -6.0 °F -16.9 °F -9.0 °F 87% 30.50 in 10.0 mi West 4.6 mph - N/A   Clear
1:54 AM -6.0 °F - -9.0 °F 87% 30.51 in 10.0 mi Calm Calm - N/A   Clear
2:54 AM -7.1 °F - -11.0 °F 83% 30.53 in 10.0 mi Calm Calm - N/A   Clear
3:54 AM -9.9 °F -19.2 °F -14.1 °F 82% 30.53 in 10.0 mi West 3.5 mph - N/A   Clear
4:33 AM -11.9 °F - -15.0 °F 86% 30.43 in 10.0 mi Calm Calm - N/A   Scattered Clouds
4:41 AM -11.0 °F - -16.1 °F 78% 30.43 in 10.0 mi Calm Calm - N/A   Mostly Cloudy
4:54 AM -11.0 °F - -16.1 °F 78% 30.53 in 10.0 mi Calm Calm - N/A   Mostly Cloudy
5:05 AM -13.0 °F - -16.1 °F 86% 30.43 in 10.0 mi Calm Calm - N/A   Scattered Clouds
5:36 AM -11.9 °F - -18.0 °F 74% 30.43 in 10.0 mi Calm Calm - N/A   Mostly Cloudy
5:54 AM -11.9 °F - -16.1 °F 82% 30.53 in 10.0 mi Calm Calm - N/A   Overcast
6:54 AM -14.1 °F - -18.9 °F 79% 30.55 in 10.0 mi Calm Calm - N/A   Overcast
7:29 AM -14.1 °F - -18.0 °F 82% 30.45 in 10.0 mi Calm Calm - N/A   Partly Cloudy
7:54 AM -14.1 °F -23.9 °F -18.0 °F 82% 30.57 in 10.0 mi SW 3.5 mph - N/A   Partly Cloudy
8:09 AM -15.0 °F - -20.0 °F 78% 30.47 in 10.0 mi Calm Calm - N/A   Mostly Cloudy
8:23 AM -14.1 °F -26.3 °F -18.0 °F 82% 30.48 in 1.8 mi SW 4.6 mph - N/A   Overcast
8:31 AM -11.9 °F -21.5 °F -16.1 °F 82% 30.48 in 4.0 mi SW 3.5 mph - N/A   Overcast
8:54 AM -11.0 °F - -13.0 °F 91% 30.58 in 9.0 mi Calm Calm - N/A   Overcast
9:34 AM -7.1 °F - -8.0 °F 96% 30.47 in 6.0 mi Calm Calm - N/A   Scattered Clouds
9:54 AM -2.9 °F - -6.0 °F 87% 30.57 in 4.0 mi Calm Calm - N/A   Clear
10:10 AM -2.9 °F - -7.1 °F 82% 30.48 in 2.5 mi Calm Calm - N/A   Partly Cloudy
10:18 AM -5.1 °F -15.8 °F -8.0 °F 87% 30.47 in 1.5 mi SSW 4.6 mph - N/A   Scattered Clouds
10:22 AM -5.1 °F -13.6 °F -8.0 °F 87% 30.47 in 3.0 mi SSW 3.5 mph - N/A   Partly Cloudy
10:54 AM -2.0 °F -12.2 °F -6.0 °F 83% 30.56 in 6.0 mi SSW 4.6 mph - N/A   Clear
11:54 AM 1.9 °F -7.6 °F -2.0 °F 83% 30.53 in 10.0 mi SSW 4.6 mph - N/A   Clear
12:54 PM 5.0 °F -5.6 °F -0.0 °F 80% 30.49 in 10.0 mi SW 5.8 mph - N/A   Clear
1:54 PM 10.0 °F 1.8 °F 3.0 °F 73% 30.47 in 10.0 mi SW 4.6 mph - N/A   Clear
2:54 PM 12.0 °F 2.7 °F 3.9 °F 70% 30.44 in 10.0 mi ESE 5.8 mph - N/A   Clear
3:54 PM 10.9 °F 0.2 °F 3.9 °F 73% 30.45 in 10.0 mi SE 6.9 mph - N/A   Clear
4:54 PM 10.0 °F 1.8 °F 3.9 °F 76% 30.45 in 10.0 mi SE 4.6 mph - N/A   Clear
5:54 PM 9.0 °F -0.9 °F 3.0 °F 77% 30.42 in 10.0 mi SE 5.8 mph - N/A   Overcast
6:54 PM 10.0 °F 1.8 °F 3.9 °F 76% 30.41 in 10.0 mi SSE 4.6 mph - N/A   Overcast
7:48 PM 10.4 °F 0.8 °F 5.0 °F 79% 30.31 in 1.8 mi South 5.8 mph - 0.00 in Snow Light Snow
7:52 PM 10.4 °F -0.4 °F 5.0 °F 79% 30.31 in 1.0 mi SSE 6.9 mph - 0.00 in Snow Light Snow
7:54 PM 10.0 °F -1.9 °F 5.0 °F 80% 30.40 in 1.0 mi South 8.1 mph - 0.00 in Snow Light Snow
8:05 PM 10.0 °F -0.9 °F 6.1 °F 84% 30.31 in 1.5 mi South 6.9 mph - 0.00 in Snow Light Snow
8:21 PM 10.0 °F 0.4 °F 6.1 °F 84% 30.30 in 3.0 mi SSE 5.8 mph - 0.01 in Snow Light Snow
8:33 PM 10.0 °F -1.9 °F 6.1 °F 84% 30.29 in 7.0 mi SSE 8.1 mph - 0.01 in Snow Light Snow
8:48 PM 10.4 °F 0.8 °F 6.8 °F 85% 30.29 in 1.8 mi SSE 5.8 mph - 0.01 in Snow Light Snow
8:54 PM 10.0 °F 0.4 °F 6.1 °F 84% 30.37 in 1.2 mi SSE 5.8 mph - 0.01 in Snow Light Snow
9:11 PM 10.0 °F -0.9 °F 6.1 °F 84% 30.28 in 3.0 mi SSE 6.9 mph - 0.00 in Snow Light Snow
9:36 PM 10.0 °F -3.7 °F 5.0 °F 80% 30.26 in 1.8 mi South 10.4 mph 17.3 mph 0.00 in Snow Light Snow
9:44 PM 10.0 °F -0.9 °F 6.1 °F 84% 30.26 in 1.2 mi SSE 6.9 mph - 0.00 in Snow Light Snow
9:54 PM 10.0 °F -1.9 °F 6.1 °F 84% 30.33 in 1.8 mi SE 8.1 mph - 0.01 in Snow Light Snow
10:02 PM 10.0 °F -0.9 °F 5.0 °F 80% 30.24 in 2.5 mi SSE 6.9 mph - 0.00 in Snow Light Snow
10:12 PM 10.0 °F -0.9 °F 6.1 °F 84% 30.24 in 1.2 mi South 6.9 mph - 0.00 in Snow Light Snow
10:19 PM 10.0 °F -0.9 °F 6.1 °F 84% 30.24 in 1.0 mi South 6.9 mph 18.4 mph 0.00 in Snow Light Snow
10:27 PM 10.0 °F -3.7 °F 6.1 °F 84% 30.24 in 0.8 mi South 10.4 mph - 0.01 in Snow Light Snow
10:39 PM 9.0 °F -0.9 °F 6.1 °F 88% 30.24 in 0.8 mi South 5.8 mph - 0.01 in Snow Light Snow
10:54 PM 9.0 °F -2.2 °F 6.1 °F 88% 30.32 in 1.0 mi South 6.9 mph - 0.02 in Snow Light Snow
11:03 PM 9.0 °F -5.1 °F 6.1 °F 88% 30.23 in 1.0 mi South 10.4 mph - 0.00 in Snow Light Snow
11:17 PM 9.0 °F -3.2 °F 5.0 °F 84% 30.22 in 0.8 mi South 8.1 mph - 0.01 in Snow Light Snow
11:44 PM 8.1 °F -5.3 °F 5.0 °F 87% 30.21 in 1.0 mi South 9.2 mph - 0.02 in Snow Light Snow
11:46 PM 8.1 °F -4.3 °F 5.0 °F 87% 30.21 in 0.8 mi South 8.1 mph - 0.02 in Snow Light Snow
11:54 PM 8.1 °F -4.3 °F 3.9 °F 83% 30.29 in 1.0 mi South 8.1 mph - 0.02 in Snow Light Snow